Location: Clarion
(42.7316°N, 93.7330°W)
Time: 08:20:17
(UTC+00:00)

Cosmos 372 Rocket - Pass Details

Date: 22 April 2026
Orbit: 733 x 762 km, 74.1° (Epoch: 17 May)

Event Time Altitude Azimuth Distance (km) Brightness Sun altitude
Rises 10:03:16 0° 334° (NNW) 3,212 7.3 -14.0°
Reaches altitude 10° 10:05:42 10° 329° (NNW) 2,278 6.5 -13.6°
Maximum altitude 10:10:39 48° 256° (WSW) 968 4.1 -12.8°
Drops below altitude 10° 10:15:31 10° 183° (S) 2,244 6.1 -12.1°
Sets 10:17:55 0° 177° (S) 3,159 6.9 -11.7°
